Location: Waco, TX
(31.5480°N, 97.1670°W)
Time: 16:09:33
(UTC-05:00)

ISS - Pass Details

Date: 20 September 2019
Orbit: 411 x 421 km, 51.6° (Epoch: 17 September)

Event Time Altitude Azimuth Distance (km) Brightness Sun altitude
Rises 03:49:54 0° 319° (NW) 2,345 - -42.1°
Reaches altitude 10° 03:52:02 10° 325° (NW) 1,482 - -41.8°
Maximum altitude 03:55:17 52° 43° (NE) 518 - -41.2°
Drops below altitude 10° 03:58:32 10° 121° (ESE) 1,480 - -40.6°
Sets 04:00:39 0° 126° (SE) 2,341 - -40.2°
